Weather History for De Queen, AR

Change the Weather History Date:

Thursday, January 24, 2013

  Actual Average Record
Temperature  
Mean Temperature 46 °F 42 °F  
Max Temperature 52 °F 54 °F 80 °F (1950)
Min Temperature 40 °F 29 °F 1 °F (1963)
Degree Days  
Heating Degree Days 19 23  
Month to date heating degree days 536 569  
Since 1 July heating degree days 1666 1778  
Cooling Degree Days 0 0  
Month to date cooling degree days 0 0  
Year to date cooling degree days 0 0  
Moisture  
Dew Point 40 °F    
Average Humidity 78    
Maximum Humidity 96    
Minimum Humidity 60    
Precipitation  
Precipitation 0.00 in 0.10 in 2.78 in (1949)
Month to date precipitation 1.30 2.55  
Year to date precipitation 1.30 2.55  
Snow  
Snow 0.00 in - - ()
Month to date snowfall T  
Since 1 July snowfall 4.5  
Snow Depth 0.00 in    
Sea Level Pressure  
Sea Level Pressure 30.20 in    
Wind  
Wind Speed 9 mph (East)    
Max Wind Speed 18 mph    
Max Gust Speed 24 mph    
Visibility 5 miles    
Events Fog    
T = Trace of Precipitation, MM = Missing Value Source: NWS Daily Summary

Daily Weather History Graph

Daily Weather History Graph

Search for Another Location

Airport:

Trip Planner

Search our weather history database for the weather conditions in past years. The results will help you decide how hot, cold, wet, or windy it might be!

Date:

Astronomy

Jan. 24, 2013 Rise Set
Actual Time 7:19 AM CST 5:40 PM CST
Civil Twilight 6:52 AM CST 6:07 PM CST
Nautical Twilight 6:22 AM CST 6:37 PM CST
Astronomical Twilight 5:52 AM CST 7:07 PM CST
Moon 3:44 PM CST (1/24) 5:15 AM CST (1/24)
Length of Visible Light 11h 14m
Length of Day
10h 21m
Waxing Gibbous, 94% of the Moon is Illuminated
Jan 24
Waxing Gibbous
Jan 26
Full
Feb 3
Last Quarter
Feb 10
New
Feb 17
First Quarter

Hourly Weather History & Observations

Time (CST) Temp. Windchill Dew Point Humidity Pressure Visibility Wind Dir Wind Speed Gust Speed Precip Events Conditions
12:53 AM 46.0 °F - 45.0 °F 96% 30.18 in 5.0 mi Calm Calm - N/A   Mostly Cloudy
1:43 AM 45.0 °F - 44.1 °F 97% 30.19 in 1.8 mi Calm Calm - N/A   Clear
1:53 AM 44.1 °F 42.5 °F 43.0 °F 96% 30.18 in 1.2 mi East 3.5 mph - N/A   Clear
2:15 AM 44.1 °F 42.5 °F 43.0 °F 96% 30.19 in 2.5 mi East 3.5 mph - N/A   Clear
2:22 AM 45.0 °F 43.5 °F 43.0 °F 93% 30.20 in 4.0 mi East 3.5 mph - N/A   Clear
2:53 AM 44.1 °F 41.5 °F 42.1 °F 93% 30.18 in 3.0 mi East 4.6 mph - N/A   Clear
3:15 AM 44.1 °F 42.5 °F 42.1 °F 93% 30.19 in 2.5 mi East 3.5 mph - N/A   Partly Cloudy
3:36 AM 42.1 °F 40.2 °F 41.0 °F 96% 30.18 in 1.2 mi East 3.5 mph - N/A   Partly Cloudy
3:53 AM 42.1 °F - 41.0 °F 96% 30.18 in 1.2 mi Calm Calm - N/A   Partly Cloudy
4:01 AM 41.0 °F 38.0 °F 39.9 °F 96% 30.18 in 0.5 mi ENE 4.6 mph - N/A Fog Fog
4:16 AM 41.0 °F 39.0 °F 39.9 °F 96% 30.18 in 1.2 mi East 3.5 mph - N/A   Partly Cloudy
4:27 AM 41.0 °F 39.0 °F 39.9 °F 96% 30.18 in 2.0 mi East 3.5 mph - N/A   Clear
4:42 AM 41.0 °F 39.0 °F 39.9 °F 96% 30.18 in 1.5 mi East 3.5 mph - N/A   Clear
4:53 AM 41.0 °F 38.0 °F 39.9 °F 96% 30.19 in 1.8 mi ENE 4.6 mph - N/A   Clear
5:15 AM 42.1 °F 40.2 °F 39.9 °F 92% 30.19 in 2.5 mi ENE 3.5 mph - N/A   Clear
5:53 AM 42.1 °F 40.2 °F 41.0 °F 96% 30.19 in 2.5 mi NNE 3.5 mph - N/A   Mostly Cloudy
6:08 AM 44.1 °F 42.5 °F 43.0 °F 96% 30.19 in 3.0 mi NE 3.5 mph - N/A   Overcast
6:53 AM 48.0 °F - 46.0 °F 93% 30.20 in 3.0 mi ENE 4.6 mph - N/A   Overcast
7:53 AM 52.0 °F - 48.0 °F 86% 30.22 in 4.0 mi East 8.1 mph - N/A   Overcast
8:19 AM 51.1 °F - 46.9 °F 86% 30.22 in 3.0 mi East 9.2 mph - N/A   Overcast
8:31 AM 51.1 °F - 46.9 °F 86% 30.23 in 2.5 mi East 12.7 mph - N/A   Overcast
8:51 AM 50.0 °F - 46.4 °F 87% 30.24 in 4.0 mi ENE 12.7 mph - N/A   Overcast
8:53 AM 50.0 °F - 46.0 °F 86% 30.24 in 4.0 mi East 12.7 mph - N/A   Overcast
9:17 AM 48.9 °F - 45.0 °F 86% 30.25 in 2.5 mi East 15.0 mph 20.7 mph N/A   Overcast
9:28 AM 48.0 °F - 44.1 °F 86% 30.24 in 3.0 mi East 13.8 mph - N/A   Overcast
9:53 AM 48.9 °F - 44.1 °F 83% 30.24 in 4.0 mi East 12.7 mph - N/A   Haze
10:53 AM 46.9 °F - 41.0 °F 80% 30.27 in 5.0 mi East 10.4 mph - N/A   Haze
11:02 AM 46.9 °F - 39.0 °F 74% 30.27 in 5.0 mi East 13.8 mph - N/A   Haze
11:53 AM 48.0 °F - 37.9 °F 68% 30.26 in 7.0 mi East 12.7 mph - N/A   Overcast
12:53 PM 46.9 °F - 37.0 °F 68% 30.22 in 6.0 mi ENE 15.0 mph - N/A   Haze
1:53 PM 46.9 °F - 37.0 °F 68% 30.21 in 7.0 mi East 11.5 mph - N/A   Overcast
2:53 PM 46.9 °F - 35.1 °F 63% 30.18 in 8.0 mi East 13.8 mph - N/A   Overcast
3:53 PM 46.0 °F 41.0 °F 35.1 °F 66% 30.19 in 8.0 mi East 10.4 mph - N/A   Overcast
4:53 PM 46.0 °F 40.2 °F 34.0 °F 63% 30.17 in 9.0 mi East 12.7 mph - N/A   Overcast
5:53 PM 44.1 °F 38.6 °F 32.0 °F 63% 30.19 in 10.0 mi East 10.4 mph 19.6 mph N/A   Overcast
6:53 PM 43.0 °F 36.4 °F 30.0 °F 60% 30.19 in 10.0 mi East 12.7 mph - N/A   Overcast
7:53 PM 42.1 °F 35.2 °F 32.0 °F 67% 30.19 in 9.0 mi East 12.7 mph 19.6 mph N/A   Overcast
8:53 PM 41.0 °F 34.7 °F 32.0 °F 70% 30.16 in 8.0 mi East 10.4 mph - N/A   Overcast
9:53 PM 41.0 °F 35.2 °F 32.0 °F 70% 30.17 in 8.0 mi ENE 9.2 mph - N/A   Overcast
10:35 PM 41.0 °F 35.8 °F 30.9 °F 67% 30.17 in 9.0 mi East 8.1 mph - N/A   Overcast
10:53 PM 41.0 °F 36.4 °F 30.9 °F 67% 30.17 in 9.0 mi East 6.9 mph - N/A   Overcast
11:53 PM 41.0 °F 35.2 °F 32.0 °F 70% 30.14 in 8.0 mi East 9.2 mph - N/A   Overcast